QPF
0.00 0.00 0.00 0.00 0.00 0.00 0.00 0.00 0.00 0.00 0.00 0.00 0.00 0.00 0.00 0.00 0.00 0.00 0.00 0.00 0.00 0.00 0.00 0.00 0.01 0.01 0.01 0.00 0.00 0.00 0.01 0.00 0.00 0.00 0.00 0.00 0.00 0.00 0.00 0.00 0.00 0.00 0.00 0.00 0.00 0.00 0.00 0.00 0.00 0.00 0.00 0.00 0.00 0.00 0.00 0.00 0.00 0.00 0.00 0.00 0.00 0.00 0.00 0.00 0.00 0.00 0.00 0.00 0.00 0.00 0.00 0.00 0.00 0.00
0.00 0.00 0.00 0.00 0.00 0.00 0.00 0.00 0.00 0.00 0.00 0.00 0.00 0.00 0.00 0.00 0.00 0.00 0.00 0.00 0.00 0.00 0.00 0.00 0.00 0.00 0.00 0.00 0.00 0.00 0.00 0.00 0.00 0.00 0.00 0.00 0.00 0.00 0.00 0.00 0.00 0.00 0.00 0.00 0.00 0.00 0.00 0.00 0.00 0.00 0.00 0.00 0.00 0.00 0.00 0.00 0.00 0.00 0.00 0.00 0.00 0.00 0.00 0.00 0.00 0.00 0.00 0.00 0.00 0.00 0.00 0.00 0.00 0.00
0.00 0.00 0.00 0.00 0.00 0.00 0.00 0.00 0.00 0.00 0.00 0.00 0.00 0.00 0.00 0.00 0.00 0.00 0.00 0.00 0.00 0.00 0.00 0.00 0.00 0.00 0.00 0.00 0.00 0.00 0.00 0.00 0.00 0.00 0.00 0.00 0.00 0.00 0.00 0.00 0.00 0.00 0.00 0.00 0.00 0.00 0.00 0.00 0.00 0.00 0.00 0.00 0.00 0.00 0.00 0.00 0.00 0.00 0.00 0.00 0.00 0.00 0.00 0.00 0.00 0.00 0.00 0.00 0.00 0.00 0.00 0.00 0.00 0.00
0.00 0.00 0.00 0.00 0.00 0.00 0.00 0.00 0.00 0.00 0.00 0.00 0.00 0.00 0.00 0.00 0.00 0.00 0.00 0.00 0.00 0.00 0.00 0.00 0.00 0.00 0.00 0.00 0.00 0.00 0.00 0.00 0.00 0.00 0.00 0.00 0.00 0.00 0.00 0.00 0.00 0.00 0.00 0.00 0.00 0.00 0.00 0.00 0.00 0.00 0.00 0.00 0.00 0.00 0.00 0.00 0.00 0.00 0.00 0.00 0.00 0.00 0.00 0.00 0.00 0.00 0.00 0.00 0.00 0.00 0.00 0.00 0.00 0.00
0.00 0.00 0.00 0.00 0.00 0.00 0.00 0.00 0.00 0.00 0.00 0.00 0.00 0.00 0.00 0.00 0.00 0.00 0.00 0.00 0.00 0.00 0.00 0.00 0.00 0.00 0.00 0.00 0.00 0.00 0.00 0.00 0.00 0.00 0.00 0.00 0.00 0.00 0.00 0.00 0.00 0.00 0.00 0.00 0.00 0.00 0.00 0.00 0.00 0.00 0.00 0.00 0.00 0.00 0.00 0.00 0.00 0.00 0.00 0.00 0.00 0.00 0.00 0.00 0.00 0.00 0.00 0.00 0.00 0.00 0.00 0.00 0.00 0.00
0.00 0.00 0.00 0.00 0.00 0.00 0.00 0.00 0.00 0.00 0.00 0.00 0.00 0.00 0.00 0.00 0.00 0.00 0.00 0.00 0.01 0.00 0.00 0.00 0.00 0.00 0.00 0.00 0.00 0.00 0.00 0.00 0.00 0.00 0.00 0.00 0.00 0.00 0.00 0.00 0.00 0.00 0.00 0.00 0.00 0.00 0.00 0.00 0.00 0.00 0.00 0.00 0.00 0.00 0.00 0.00 0.00 0.00 0.00 0.00 0.00 0.00 0.00 0.00 0.00 0.00 0.00 0.00 0.00 0.00 0.00 0.00 0.00 0.00
0.00 0.00 0.00 0.00 0.00 0.00 0.00 0.00 0.00 0.00 0.00 0.00 0.00 0.00 0.00 0.02 0.00 0.00 0.00 0.00 0.00 0.00 0.00 0.00 0.00 0.00 0.00 0.00 0.00 0.00 0.00 0.00 0.00 0.00 0.00 0.00 0.00 0.00 0.00 0.00 0.00 0.00 0.00 0.00 0.00 0.00 0.00 0.00 0.00 0.00 0.00 0.00 0.00 0.00 0.00 0.00 0.00 0.00 0.00 0.00 0.00 0.00 0.00 0.00 0.00 0.00 0.00 0.00 0.00 0.00 0.00 0.00 0.00 0.00
0.00 0.00 0.00 0.00 0.00 0.00 0.00 0.00 0.00 0.00 0.00 0.00 0.00 0.00 0.00 0.00 0.00 0.00 0.00 0.00 0.00 0.00 0.00 0.00 0.00 0.00 0.00 0.00 0.00 0.00 0.00 0.00 0.00 0.00 0.00 0.00 0.00 0.00 0.00 0.00 0.00 0.00 0.00 0.00 0.00 0.00 0.00 0.00 0.00 0.00 0.00 0.00 0.00 0.00 0.00 0.00 0.00 0.00 0.00 0.00 0.00 0.00 0.00 0.00 0.00 0.00 0.00 0.00 0.00 0.00 0.00 0.00 0.00 0.00
0.00 0.00 0.00 0.00 0.00 0.00 0.00 0.00 0.00 0.00 0.00 0.00 0.00 0.00 0.00 0.00 0.00 0.00 0.00 0.00 0.00 0.00 0.01 0.00 0.01 0.00 0.00 0.00 0.00 0.00 0.00 0.00 0.00 0.00 0.00 0.00 0.00 0.00 0.00 0.00 0.00 0.00 0.00 0.00 0.00 0.00 0.00 0.00 0.00 0.00 0.00 0.00 0.00 0.00 0.00 0.00 0.00 0.00 0.00 0.00 0.00 0.00 0.00 0.00 0.00 0.00 0.00 0.00 0.00 0.00 0.00 0.00 0.00 0.00
0.00 0.00 0.00 0.00 0.00 0.00 0.00 0.00 0.00 0.00 0.00 0.00 0.00 0.00 0.00 0.00 0.00 0.00 0.00 0.00 0.00 0.00 0.00 0.00 0.00 0.00 0.00 0.00 0.00 0.00 0.00 0.00 0.00 0.00 0.00 0.00 0.00 0.00 0.00 0.00 0.00 0.00 0.00 0.00 0.00 0.00 0.00 0.00 0.00 0.00 0.00 0.00 0.00 0.00 0.00 0.00 0.00 0.00 0.00 0.00 0.00 0.00 0.00 0.00 0.00 0.00 0.00 0.00 0.00 0.00 0.00 0.00 0.00 0.00
0.00 0.00 0.00 0.00 0.00 0.00 0.00 0.00 0.02 0.01 0.00 0.00 0.00 0.00 0.00 0.00 0.00 0.00 0.00 0.00 0.00 0.00 0.00 0.00 0.00 0.00 0.00 0.00 0.00 0.00 0.00 0.00 0.00 0.00 0.00 0.00 0.00 0.00 0.00 0.00 0.00 0.00 0.00 0.00 0.00 0.00 0.00 0.00 0.00 0.00 0.00 0.00 0.00 0.00 0.00 0.00 0.00 0.00 0.00 0.00 0.00 0.00 0.00 0.00 0.00 0.00 0.00 0.00 0.00 0.00 0.00 0.00 0.00 0.00
0.00 0.00 0.00 0.00 0.00 0.00 0.00 0.00 0.00 0.00 0.00 0.00 0.00 0.00 0.00 0.00 0.00 0.00 0.00 0.00 0.00 0.00 0.00 0.00 0.00 0.00 0.00 0.00 0.00 0.00 0.00 0.00 0.00 0.00 0.00 0.00 0.00 0.00 0.00 0.00 0.00 0.00 0.00 0.00 0.00 0.00 0.00 0.00 0.00 0.00 0.00 0.00 0.00 0.00 0.00 0.00 0.00 0.00 0.00 0.00 0.00 0.00 0.00 0.00 0.00 0.00 0.00 0.00 0.00 0.00 0.00 0.00 0.00 0.00
0.00 0.00 0.00 0.00 0.00 0.00 0.00 0.00 0.00 0.00 0.00 0.00 0.00 0.00 0.00 0.00 0.00 0.00 0.00 0.00 0.00 0.00 0.00 0.00 0.00 0.00 0.00 0.00 0.00 0.00 0.00 0.00 0.00 0.00 0.00 0.00 0.00 0.00 0.00 0.00 0.00 0.00 0.00 0.00 0.00 0.00 0.00 0.00 0.00 0.00 0.00 0.00 0.00 0.00 0.00 0.00 0.00 0.00 0.00 0.00 0.00 0.00 0.00 0.00 0.00 0.00 0.00 0.00 0.00 0.00 0.00 0.00 0.00 0.00
0.00 0.00 0.00 0.00 0.00 0.00 0.00 0.00 0.00 0.00 0.00 0.00 0.00 0.00 0.00 0.00 0.00 0.00 0.00 0.00 0.00 0.00 0.00 0.00 0.00 0.00 0.00 0.00 0.00 0.00 0.00 0.00 0.00 0.00 0.00 0.00 0.00 0.00 0.00 0.00 0.00 0.00 0.00 0.00 0.00 0.00 0.00 0.00 0.00 0.00 0.00 0.00 0.00 0.00 0.00 0.00 0.00 0.00 0.00 0.00 0.00 0.00 0.00 0.00 0.00 0.00 0.00 0.00 0.00 0.00 0.00 0.00 0.00 0.00
0.00 0.00 0.00 0.00 0.00 0.00 0.00 0.00 0.00 0.00 0.00 0.00 0.00 0.00 0.00 0.00 0.00 0.00 0.00 0.00 0.00 0.00 0.00 0.00 0.00 0.00 0.00 0.00 0.00 0.00 0.00 0.00 0.00 0.00 0.00 0.00 0.00 0.00 0.00 0.00 0.00 0.00 0.00 0.00 0.00 0.00 0.00 0.00 0.00 0.00 0.00 0.00 0.00 0.00 0.00 0.00 0.00 0.00 0.00 0.00 0.00 0.00 0.00 0.00 0.00 0.00 0.00 0.00 0.00 0.00 0.00 0.00 0.00 0.00
0.00 0.00 0.00 0.00 0.00 0.01 0.02 0.00 0.00 0.00 0.00 0.00 0.00 0.00 0.00 0.00 0.00 0.00 0.00 0.00 0.00 0.00 0.00 0.00 0.00 0.00 0.00 0.00 0.00 0.00 0.00 0.00 0.00 0.00 0.00 0.00 0.00 0.00 0.00 0.00 0.00 0.00 0.00 0.00 0.00 0.00 0.00 0.00 0.00 0.00 0.00 0.00 0.00 0.00 0.00 0.00 0.00 0.00 0.00 0.00 0.00 0.00 0.00 0.00 0.00 0.00 0.00 0.00 0.00 0.00 0.00 0.00 0.00 0.00
0.00 0.00 0.00 0.00 0.00 0.00 0.01 0.00 0.02 0.00 0.00 0.00 0.00 0.00 0.00 0.00 0.00 0.00 0.00 0.00 0.00 0.00 0.00 0.00 0.00 0.00 0.00 0.00 0.00 0.00 0.00 0.00 0.00 0.00 0.00 0.01 0.01 0.01 0.01 0.00 0.00 0.00 0.00 0.00 0.00 0.00 0.00 0.00 0.00 0.00 0.00 0.00 0.00 0.00 0.00 0.00 0.00 0.00 0.00 0.00 0.00 0.00 0.00 0.00 0.00 0.00 0.00 0.00 0.00 0.00 0.00 0.00 0.00 0.00
0.00 0.00 0.00 0.00 0.00 0.00 0.00 0.00 0.00 0.00 0.00 0.00 0.01 0.03 0.00 0.00 0.00 0.00 0.00 0.00 0.00 0.00 0.00 0.00 0.00 0.00 0.00 0.00 0.00 0.01 0.01 0.00 0.02 0.01 0.03 0.02 0.02 0.02 0.03 0.00 0.00 0.00 0.00 0.00 0.00 0.00 0.00 0.02 0.00 0.00 0.00 0.00 0.00 0.00 0.00 0.00 0.00 0.00 0.00 0.00 0.00 0.00 0.00 0.00 0.00 0.00 0.00 0.00 0.00 0.00 0.00 0.00 0.00 0.00
0.00 0.02 0.03 0.00 0.00 0.00 0.01 0.01 0.00 0.04 0.04 0.02 0.01 0.01 0.00 0.00 0.08 0.00 0.03 0.01 0.01 0.02 0.00 0.00 0.00 0.00 0.04 0.00 0.01 0.00 0.00 0.00 0.01 0.00 0.00 0.00 0.00 0.00 0.00 0.00 0.00 0.01 0.00 0.00 0.01 0.03 0.01 0.02 0.01 0.00 0.00 0.00 0.00 0.00 0.00 0.00 0.00 0.00 0.00 0.00 0.00 0.00 0.00 0.00 0.00 0.00 0.00 0.00 0.00 0.00 0.00 0.00 0.00 0.00
0.00 0.00 0.00 0.00 0.02 0.11 0.09 0.00 0.00 0.00 0.00 0.00 0.00 0.00 0.00 0.03 0.01 0.03 0.14 0.04 0.01 0.01 0.01 0.01 0.00 0.01 0.01 0.00 0.00 0.00 0.00 0.00 0.00 0.00 0.00 0.00 0.00 0.00 0.00 0.01 0.02 0.01 0.01 0.01 0.01 0.02 0.01 0.01 0.01 0.01 0.01 0.01 0.00 0.00 0.00 0.00 0.00 0.00 0.00 0.00 0.00 0.00 0.00 0.00 0.00 0.00 0.00 0.00 0.00 0.00 0.00 0.00 0.00 0.00
0.00 0.05 0.09 0.07 0.07 0.14 0.01 0.00 0.00 0.00 0.00 0.00 0.01 0.09 0.07 0.03 0.04 0.06 0.07 0.03 0.01 0.02 0.00 0.00 0.00 0.00 0.00 0.00 0.00 0.00 0.00 0.00 0.00 0.00 0.00 0.00 0.00 0.00 0.00 0.01 0.03 0.03 0.00 0.01 0.03 0.03 0.00 0.01 0.00 0.01 0.01 0.01 0.00 0.00 0.00 0.01 0.00 0.00 0.00 0.00 0.00 0.00 0.00 0.00 0.00 0.00 0.00 0.00 0.00 0.00 0.00 0.00 0.00 0.00
0.15 0.09 0.04 0.01 0.06 0.03 0.00 0.00 0.00 0.00 0.00 0.00 0.02 0.04 0.05 0.00 0.05 0.04 0.06 0.13 0.05 0.00 0.00 0.00 0.00 0.00 0.00 0.00 0.00 0.00 0.00 0.00 0.00 0.00 0.00 0.02 0.03 0.02 0.01 0.02 0.04 0.01 0.00 0.01 0.01 0.05 0.07 0.01 0.01 0.01 0.01 0.00 0.00 0.01 0.02 0.00 0.01 0.00 0.00 0.00 0.00 0.00 0.00 0.00 0.00 0.00 0.00 0.00 0.00 0.00 0.00 0.00 0.00 0.00
0.22 0.17 0.06 0.00 0.00 0.00 0.00 0.00 0.00 0.00 0.00 0.00 0.02 0.07 0.05 0.04 0.08 0.08 0.05 0.04 0.05 0.08 0.03 0.02 0.02 0.00 0.00 0.00 0.00 0.00 0.00 0.00 0.00 0.00 0.00 0.04 0.03 0.04 0.05 0.03 0.05 0.04 0.05 0.11 0.01 0.01 0.03 0.02 0.02 0.01 0.02 0.02 0.02 0.00 0.01 0.00 0.00 0.01 0.03 0.00 0.00 0.00 0.00 0.00 0.00 0.00 0.00 0.00 0.00 0.00 0.00 0.00 0.00 0.00
0.21 0.13 0.05 0.00 0.00 0.00 0.00 0.00 0.00 0.00 0.00 0.00 0.00 0.00 0.02 0.07 0.03 0.00 0.00 0.00 0.00 0.00 0.00 0.00 0.00 0.00 0.01 0.05 0.03 0.01 0.01 0.00 0.00 0.00 0.09 0.21 0.14 0.04 0.07 0.06 0.11 0.09 0.04 0.06 0.04 0.03 0.03 0.05 0.06 0.02 0.03 0.01 0.01 0.00 0.00 0.01 0.01 0.02 0.01 0.01 0.02 0.01 0.00 0.00 0.00 0.00 0.00 0.00 0.00 0.00 0.00 0.00 0.00 0.00
0.38 0.19 0.09 0.01 0.00 0.00 0.00 0.00 0.00 0.00 0.00 0.00 0.00 0.00 0.00 0.00 0.00 0.00 0.00 0.00 0.00 0.00 0.00 0.00 0.00 0.00 0.00 0.00 0.00 0.00 0.01 0.07 0.26 0.09 0.01 0.14 0.15 0.06 0.03 0.02 0.03 0.04 0.03 0.07 0.00 0.09 0.05 0.05 0.04 0.03 0.05 0.06 0.02 0.01 0.01 0.00 0.03 0.02 0.02 0.01 0.05 0.01 0.02 0.01 0.00 0.00 0.00 0.00 0.00 0.00 0.00 0.00 0.00 0.00
0.24 0.09 0.08 0.12 0.03 0.00 0.00 0.00 0.00 0.00 0.00 0.00 0.00 0.00 0.00 0.00 0.00 0.00 0.00 0.00 0.00 0.00 0.00 0.00 0.00 0.00 0.00 0.00 0.00 0.00 0.00 0.00 0.00 0.02 0.21 0.28 0.19 0.03 0.06 0.02 0.01 0.02 0.01 0.02 0.00 0.00 0.01 0.00 0.03 0.00 0.01 0.05 0.03 0.02 0.02 0.00 0.00 0.01 0.00 0.03 0.03 0.02 0.03 0.12 0.04 0.06 0.02 0.02 0.00 0.00 0.02 0.00 0.00 0.00
0.36 0.01 0.01 0.01 0.01 0.00 0.00 0.00 0.00 0.00 0.00 0.00 0.00 0.00 0.00 0.00 0.00 0.00 0.00 0.00 0.00 0.00 0.00 0.00 0.00 0.00 0.00 0.00 0.00 0.00 0.00 0.00 0.00 0.00 0.00 0.00 0.00 0.00 0.00 0.00 0.00 0.00 0.00 0.01 0.00 0.00 0.01 0.01 0.00 0.02 0.05 0.05 0.06 0.01 0.02 0.05 0.02 0.00 0.01 0.02 0.01 0.01 0.02 0.03 0.04 0.03 0.04 0.05 0.19 0.02 0.00 0.00 0.00 0.00
0.10 0.01 0.02 0.02 0.02 0.01 0.00 0.00 0.00 0.00 0.00 0.00 0.00 0.00 0.00 0.00 0.00 0.00 0.00 0.00 0.00 0.00 0.00 0.00 0.00 0.00 0.00 0.00 0.00 0.00 0.00 0.00 0.00 0.00 0.00 0.00 0.00 0.00 0.00 0.00 0.00 0.00 0.00 0.00 0.00 0.00 0.00 0.03 0.05 0.03 0.09 0.06 0.06 0.05 0.03 0.01 0.01 0.05 0.01 0.01 0.01 0.01 0.02 0.01 0.05 0.01 0.08 0.11 0.03 0.02 0.02 0.01 0.00 0.00
0.00 0.00 0.00 0.00 0.00 0.00 0.00 0.00 0.00 0.00 0.00 0.00 0.01 0.00 0.00 0.00 0.00 0.00 0.00 0.00 0.00 0.00 0.00 0.00 0.00 0.00 0.00 0.00 0.00 0.00 0.00 0.00 0.00 0.00 0.00 0.00 0.00 0.00 0.00 0.00 0.00 0.00 0.00 0.00 0.00 0.00 0.01 0.01 0.01 0.07 0.20 0.11 0.08 0.04 0.03 0.02 0.01 0.02 0.02 0.02 0.01 0.01 0.04 0.02 0.01 0.05 0.21 0.08 0.16 0.02 0.02 0.03 0.02 0.01
0.00 0.00 0.00 0.00 0.00 0.00 0.00 0.00 0.00 0.00 0.00 0.00 0.00 0.00 0.00 0.00 0.00 0.00 0.00 0.00 0.00 0.00 0.00 0.00 0.00 0.00 0.00 0.00 0.00 0.00 0.00 0.00 0.00 0.00 0.00 0.00 0.00 0.00 0.00 0.00 0.00 0.00 0.00 0.00 0.00 0.00 0.00 0.00 0.03 0.10 0.12 0.10 0.07 0.04 0.02 0.04 0.01 0.01 0.00 0.00 0.00 0.01 0.00 0.01 0.04 0.05 0.12 0.15 0.05 0.04 0.01 0.01 0.04 0.05
0.01 0.00 0.00 0.00 0.00 0.00 0.00 0.00 0.00 0.00 0.00 0.00 0.00 0.00 0.00 0.00 0.00 0.00 0.00 0.00 0.00 0.00 0.00 0.00 0.00 0.00 0.00 0.00 0.00 0.00 0.00 0.00 0.00 0.00 0.00 0.00 0.00 0.00 0.00 0.00 0.00 0.00 0.00 0.00 0.00 0.00 0.00 0.00 0.02 0.02 0.02 0.03 0.01 0.02 0.02 0.02 0.03 0.01 0.00 0.00 0.00 0.02 0.01 0.02 0.07 0.22 0.23 0.17 0.14 0.04 0.00 0.01 0.01 0.02
0.00 0.00 0.00 0.00 0.00 0.00 0.00 0.00 0.00 0.00 0.00 0.00 0.00 0.00 0.00 0.00 0.00 0.00 0.00 0.00 0.00 0.00 0.00 0.00 0.00 0.00 0.00 0.00 0.00 0.00 0.00 0.00 0.00 0.00 0.00 0.00 0.00 0.00 0.00 0.00 0.00 0.00 0.00 0.00 0.00 0.00 0.00 0.00 0.00 0.00 0.01 0.02 0.02 0.01 0.02 0.01 0.01 0.00 0.00 0.00 0.00 0.00 0.01 0.09 0.05 0.07 0.09 0.05 0.00 0.00 0.00 0.02 0.04 0.01
0.00 0.00 0.00 0.00 0.00 0.00 0.00 0.00 0.00 0.00 0.00 0.00 0.00 0.00 0.00 0.00 0.00 0.00 0.00 0.00 0.00 0.00 0.00 0.00 0.00 0.00 0.00 0.00 0.00 0.00 0.00 0.00 0.00 0.00 0.00 0.00 0.00 0.00 0.00 0.00 0.00 0.00 0.00 0.00 0.00 0.00 0.00 0.00 0.00 0.00 0.00 0.00 0.01 0.00 0.03 0.01 0.01 0.01 0.01 0.00 0.00 0.02 0.04 0.02 0.01 0.01 0.01 0.01 0.00 0.00 0.00 0.00 0.00 0.01
0.00 0.00 0.00 0.00 0.00 0.00 0.00 0.00 0.00 0.00 0.00 0.00 0.00 0.00 0.00 0.00 0.00 0.00 0.00 0.00 0.00 0.00 0.00 0.00 0.00 0.00 0.00 0.00 0.00 0.00 0.00 0.00 0.00 0.00 0.00 0.00 0.00 0.00 0.00 0.00 0.00 0.00 0.00 0.00 0.00 0.00 0.00 0.00 0.00 0.00 0.00 0.00 0.00 0.00 0.01 0.03 0.03 0.01 0.01 0.01 0.02 0.02 0.01 0.01 0.01 0.01 0.01 0.02 0.01 0.01 0.00 0.00 0.00 0.00
0.00 0.00 0.00 0.00 0.00 0.00 0.00 0.00 0.00 0.00 0.00 0.00 0.00 0.00 0.00 0.00 0.00 0.00 0.00 0.00 0.00 0.00 0.00 0.00 0.00 0.00 0.00 0.00 0.00 0.00 0.00 0.00 0.00 0.00 0.00 0.00 0.00 0.00 0.00 0.00 0.00 0.00 0.00 0.00 0.00 0.00 0.00 0.00 0.00 0.00 0.00 0.00 0.00 0.00 0.00 0.00 0.00 0.02 0.01 0.00 0.00 0.00 0.00 0.01 0.00 0.00 0.00 0.00 0.00 0.00 0.01 0.00 0.00 0.00
0.00 0.00 0.00 0.00 0.00 0.00 0.00 0.00 0.00 0.00 0.00 0.00 0.00 0.00 0.00 0.00 0.00 0.00 0.00 0.00 0.00 0.00 0.00 0.00 0.00 0.00 0.00 0.00 0.00 0.00 0.00 0.00 0.00 0.00 0.00 0.00 0.00 0.00 0.00 0.00 0.00 0.00 0.00 0.00 0.00 0.00 0.00 0.00 0.00 0.00 0.00 0.00 0.00 0.00 0.00 0.00 0.00 0.00 0.00 0.00 0.00 0.00 0.00 0.00 0.00 0.00 0.00 0.00 0.00 0.00 0.02 0.01 0.00 0.00
0.00 0.00 0.00 0.00 0.00 0.00 0.00 0.00 0.00 0.00 0.00 0.00 0.00 0.00 0.00 0.00 0.00 0.00 0.00 0.00 0.00 0.00 0.00 0.00 0.00 0.00 0.00 0.00 0.00 0.00 0.00 0.00 0.00 0.00 0.00 0.00 0.00 0.00 0.00 0.00 0.00 0.00 0.00 0.00 0.00 0.00 0.00 0.00 0.00 0.00 0.00 0.00 0.00 0.00 0.00 0.00 0.00 0.00 0.00 0.00 0.00 0.00 0.00 0.00 0.00 0.00 0.00 0.00 0.00 0.00 0.01 0.00 0.00 0.00
0.00 0.00 0.00 0.00 0.00 0.00 0.00 0.00 0.00 0.00 0.00 0.00 0.00 0.00 0.00 0.00 0.00 0.00 0.00 0.00 0.00 0.00 0.00 0.00 0.00 0.00 0.00 0.00 0.00 0.00 0.00 0.00 0.00 0.00 0.00 0.00 0.00 0.00 0.00 0.00 0.00 0.00 0.00 0.00 0.00 0.00 0.00 0.00 0.00 0.00 0.00 0.00 0.00 0.00 0.00 0.00 0.00 0.00 0.00 0.00 0.00 0.00 0.00 0.00 0.00 0.00 0.00 0.00 0.00 0.00 0.00 0.00 0.00 0.00
0.00 0.00 0.00 0.00 0.00 0.00 0.00 0.00 0.00 0.00 0.00 0.00 0.00 0.00 0.00 0.00 0.00 0.00 0.00 0.00 0.00 0.00 0.00 0.00 0.00 0.00 0.00 0.00 0.00 0.00 0.00 0.00 0.00 0.00 0.00 0.00 0.00 0.00 0.00 0.00 0.00 0.00 0.00 0.00 0.00 0.00 0.00 0.00 0.00 0.00 0.00 0.00 0.00 0.00 0.00 0.00 0.00 0.00 0.00 0.00 0.00 0.00 0.00 0.00 0.00 0.00 0.00 0.00 0.00 0.00 0.00 0.00 0.00 0.00
0.00 0.00 0.00 0.00 0.00 0.00 0.00 0.00 0.00 0.00 0.00 0.00 0.00 0.00 0.00 0.00 0.00 0.00 0.00 0.00 0.00 0.00 0.00 0.00 0.00 0.00 0.00 0.00 0.00 0.00 0.00 0.00 0.00 0.00 0.00 0.00 0.00 0.00 0.00 0.00 0.00 0.00 0.00 0.00 0.00 0.00 0.00 0.00 0.00 0.00 0.00 0.00 0.00 0.00 0.00 0.00 0.00 0.00 0.00 0.00 0.00 0.00 0.00 0.00 0.00 0.00 0.00 0.00 0.00 0.00 0.00 0.00 0.00 0.00
0.00 0.00 0.00 0.00 0.00 0.00 0.00 0.00 0.00 0.00 0.00 0.00 0.00 0.00 0.00 0.00 0.00 0.00 0.00 0.00 0.00 0.00 0.00 0.00 0.00 0.00 0.00 0.00 0.00 0.00 0.00 0.00 0.00 0.00 0.00 0.00 0.00 0.00 0.00 0.00 0.00 0.00 0.00 0.00 0.00 0.00 0.00 0.00 0.00 0.00 0.00 0.00 0.00 0.00 0.00 0.00 0.00 0.00 0.00 0.00 0.00 0.00 0.00 0.00 0.00 0.00 0.00 0.00 0.00 0.00 0.00 0.00 0.00 0.00
0.00 0.00 0.00 0.00 0.00 0.00 0.00 0.00 0.00 0.00 0.00 0.00 0.00 0.00 0.00 0.00 0.00 0.00 0.00 0.00 0.00 0.00 0.00 0.00 0.00 0.00 0.00 0.00 0.00 0.00 0.00 0.00 0.00 0.00 0.00 0.00 0.00 0.00 0.00 0.00 0.00 0.00 0.00 0.00 0.00 0.00 0.00 0.00 0.00 0.00 0.00 0.00 0.00 0.00 0.00 0.00 0.00 0.00 0.00 0.00 0.00 0.00 0.00 0.00 0.00 0.00 0.00 0.00 0.00 0.00 0.00 0.00 0.00 0.00
0.00 0.00 0.00 0.00 0.00 0.00 0.00 0.00 0.00 0.00 0.00 0.00 0.00 0.00 0.00 0.00 0.00 0.00 0.00 0.00 0.00 0.00 0.00 0.00 0.00 0.00 0.00 0.00 0.00 0.00 0.00 0.00 0.00 0.00 0.00 0.00 0.00 0.00 0.00 0.00 0.00 0.00 0.00 0.00 0.00 0.00 0.00 0.00 0.00 0.00 0.00 0.00 0.00 0.00 0.00 0.00 0.00 0.00 0.00 0.00 0.00 0.00 0.00 0.00 0.00 0.00 0.00 0.00 0.00 0.00 0.00 0.00 0.00 0.00
0.00 0.00 0.00 0.00 0.00 0.00 0.00 0.00 0.00 0.00 0.00 0.00 0.00 0.00 0.00 0.00 0.00 0.00 0.00 0.00 0.00 0.00 0.00 0.00 0.00 0.00 0.00 0.00 0.00 0.00 0.00 0.00 0.00 0.00 0.00 0.00 0.00 0.00 0.00 0.00 0.00 0.00 0.00 0.00 0.00 0.00 0.00 0.00 0.00 0.00 0.00 0.00 0.00 0.00 0.00 0.00 0.00 0.00 0.00 0.00 0.00 0.00 0.00 0.00 0.00 0.00 0.00 0.00 0.00 0.00 0.00 0.00 0.00 0.00
0.00 0.00 0.00 0.00 0.00 0.00 0.00 0.00 0.00 0.00 0.00 0.00 0.00 0.00 0.00 0.00 0.00 0.00 0.00 0.00 0.00 0.00 0.00 0.00 0.00 0.00 0.00 0.00 0.00 0.00 0.00 0.00 0.00 0.00 0.00 0.00 0.00 0.00 0.00 0.00 0.00 0.00 0.00 0.00 0.00 0.00 0.00 0.00 0.00 0.00 0.00 0.00 0.00 0.00 0.00 0.00 0.00 0.00 0.00 0.00 0.00 0.00 0.00 0.00 0.00 0.00 0.00 0.00 0.00 0.00 0.00 0.00 0.00 0.00
MSLP
1019.71 1019.67 1019.79 1020.03 1019.83 1019.59 1019.35 1019.39 1019.11 1019.23 1019.67 1019.71 1019.71 1019.87 1020.67 1021.59 1022.91 1023.43 1023.15 1022.35 1021.83 1020.03 1018.83 1019.99 1019.79 1018.59 1018.83 1018.47 1017.87 1017.83 1018.11 1018.03 1017.71 1017.51 1017.55 1017.55 1017.35 1017.71 1017.75 1017.71 1017.83 1017.91 1017.99 1018.07 1018.11 1018.15 1018.23 1018.23 1018.23 1018.23 1018.23 1018.27 1018.31 1018.35 1018.35 1018.35 1018.39 1018.47 1018.51 1018.55 1018.59 1018.63 1018.63 1018.63 1018.67 1018.67 1018.71 1018.71 1018.75 1018.79 1018.79 1018.75 1018.75 1018.75
1019.87 1019.75 1019.67 1019.67 1019.83 1019.47 1019.39 1019.31 1019.03 1019.19 1019.63 1019.71 1019.63 1019.67 1019.83 1020.39 1021.87 1022.39 1023.35 1022.95 1021.27 1020.83 1019.23 1018.79 1019.59 1019.07 1018.59 1017.87 1018.03 1017.51 1017.47 1017.59 1017.51 1017.51 1017.47 1017.43 1017.19 1017.27 1017.27 1017.39 1017.55 1017.71 1017.79 1017.79 1017.83 1017.91 1017.95 1017.99 1017.99 1017.99 1017.95 1017.99 1018.07 1018.11 1018.19 1018.19 1018.19 1018.23 1018.31 1018.39 1018.43 1018.47 1018.55 1018.55 1018.55 1018.59 1018.59 1018.63 1018.63 1018.63 1018.67 1018.67 1018.63 1018.67
1019.99 1020.15 1020.27 1020.03 1019.99 1019.67 1019.59 1019.47 1019.19 1019.15 1019.23 1019.55 1019.55 1019.63 1019.67 1020.07 1020.55 1021.39 1022.07 1023.15 1021.23 1020.03 1020.63 1019.27 1018.19 1018.47 1017.99 1017.87 1018.07 1017.71 1017.55 1017.43 1017.35 1017.39 1017.43 1017.27 1017.19 1017.15 1016.87 1017.07 1017.23 1017.47 1017.59 1017.59 1017.55 1017.59 1017.67 1017.71 1017.71 1017.75 1017.75 1017.75 1017.79 1017.87 1017.91 1017.95 1017.99 1017.99 1018.07 1018.15 1018.19 1018.27 1018.35 1018.43 1018.43 1018.43 1018.47 1018.51 1018.55 1018.55 1018.55 1018.51 1018.51 1018.51
1019.91 1020.31 1020.51 1020.35 1020.35 1019.99 1019.83 1019.71 1019.51 1019.43 1019.35 1019.39 1019.55 1019.51 1019.67 1019.95 1020.03 1020.47 1021.43 1022.35 1022.39 1020.31 1019.95 1019.43 1018.75 1017.99 1018.23 1018.03 1018.27 1018.23 1017.91 1017.31 1017.39 1017.39 1017.31 1017.03 1017.03 1016.79 1016.27 1016.39 1016.71 1017.11 1017.35 1017.47 1017.39 1017.35 1017.39 1017.43 1017.43 1017.51 1017.51 1017.51 1017.55 1017.55 1017.63 1017.71 1017.75 1017.83 1017.87 1017.91 1017.99 1018.07 1018.15 1018.27 1018.31 1018.31 1018.31 1018.35 1018.39 1018.47 1018.47 1018.43 1018.39 1018.39
1020.03 1020.35 1020.55 1020.47 1020.23 1019.99 1020.23 1019.99 1019.63 1019.39 1019.35 1019.35 1019.47 1019.55 1019.67 1019.91 1019.71 1020.15 1021.11 1021.99 1021.91 1020.67 1019.39 1019.47 1019.19 1018.47 1018.27 1018.59 1018.19 1018.47 1018.23 1017.91 1017.39 1017.35 1017.07 1016.91 1016.83 1016.43 1016.23 1016.15 1016.63 1016.83 1017.11 1017.19 1017.11 1017.11 1017.07 1017.15 1017.19 1017.23 1017.27 1017.27 1017.27 1017.31 1017.35 1017.39 1017.51 1017.59 1017.63 1017.67 1017.75 1017.83 1017.91 1018.03 1018.11 1018.15 1018.19 1018.19 1018.19 1018.23 1018.31 1018.31 1018.35 1018.31
1020.19 1020.23 1020.51 1020.47 1020.15 1019.87 1020.15 1019.95 1019.83 1019.51 1019.39 1019.35 1019.39 1019.27 1019.35 1019.63 1019.79 1019.59 1020.71 1021.27 1021.67 1021.71 1020.11 1019.91 1019.03 1018.99 1018.35 1019.07 1018.03 1018.55 1018.63 1018.19 1017.79 1017.71 1017.47 1016.91 1016.43 1016.23 1016.15 1016.03 1016.19 1016.67 1016.79 1016.79 1016.75 1016.75 1016.75 1016.79 1016.87 1016.91 1016.95 1016.99 1017.03 1017.03 1017.07 1017.11 1017.19 1017.27 1017.35 1017.43 1017.55 1017.63 1017.71 1017.79 1017.87 1017.91 1017.99 1018.03 1018.07 1018.07 1018.07 1018.15 1018.15 1018.19
1020.15 1020.31 1020.39 1020.39 1020.11 1019.67 1019.91 1019.95 1019.79 1019.51 1019.55 1019.27 1019.51 1019.63 1019.47 1020.11 1019.75 1019.67 1019.91 1020.83 1021.51 1021.39 1020.95 1019.75 1019.63 1019.23 1018.83 1018.99 1018.71 1018.15 1017.91 1017.87 1017.59 1017.87 1017.55 1017.15 1016.59 1016.19 1016.07 1016.11 1015.75 1016.39 1016.39 1016.31 1016.31 1016.31 1016.35 1016.43 1016.51 1016.59 1016.63 1016.67 1016.67 1016.71 1016.75 1016.83 1016.87 1016.95 1017.07 1017.19 1017.31 1017.39 1017.47 1017.55 1017.63 1017.67 1017.71 1017.79 1017.83 1017.87 1017.87 1017.91 1017.95 1017.99
1020.03 1020.15 1020.31 1020.19 1019.87 1019.79 1020.15 1020.11 1019.95 1019.67 1019.59 1019.67 1019.75 1019.83 1019.71 1019.75 1019.91 1019.75 1019.79 1019.95 1020.75 1020.87 1021.27 1020.27 1019.95 1019.31 1019.39 1018.91 1018.27 1017.91 1017.75 1017.79 1017.79 1017.67 1017.39 1016.95 1016.87 1016.55 1016.27 1016.15 1015.67 1015.99 1016.03 1015.91 1015.91 1015.95 1015.99 1016.07 1016.15 1016.23 1016.23 1016.23 1016.31 1016.39 1016.47 1016.51 1016.59 1016.63 1016.75 1016.91 1017.07 1017.15 1017.23 1017.31 1017.35 1017.39 1017.43 1017.51 1017.55 1017.59 1017.63 1017.67 1017.71 1017.79
1019.83 1019.95 1020.07 1019.91 1019.83 1019.87 1020.19 1020.07 1019.95 1019.71 1019.83 1019.63 1019.63 1019.75 1019.63 1019.75 1019.59 1019.63 1019.71 1019.91 1020.03 1020.63 1020.99 1020.55 1019.71 1019.23 1019.03 1018.55 1018.31 1018.07 1018.47 1018.19 1017.91 1017.51 1017.63 1017.39 1017.07 1016.75 1016.39 1016.03 1015.51 1015.59 1015.67 1015.63 1015.67 1015.63 1015.63 1015.71 1015.91 1015.95 1015.87 1015.87 1015.91 1015.99 1016.11 1016.23 1016.31 1016.43 1016.51 1016.59 1016.75 1016.87 1016.95 1016.99 1017.07 1017.11 1017.15 1017.19 1017.27 1017.35 1017.39 1017.43 1017.47 1017.55
1019.47 1019.67 1019.71 1019.67 1019.63 1019.71 1020.07 1019.99 1019.75 1019.59 1019.75 1019.63 1019.71 1019.79 1019.75 1019.67 1019.67 1019.87 1019.87 1019.83 1020.07 1020.27 1020.47 1020.43 1020.23 1019.23 1019.23 1018.99 1018.71 1018.23 1018.11 1018.47 1018.63 1018.35 1017.75 1017.23 1016.95 1017.07 1017.07 1016.59 1016.15 1015.59 1015.35 1015.43 1015.47 1015.43 1015.43 1015.55 1015.63 1015.55 1015.51 1015.51 1015.55 1015.59 1015.71 1015.79 1015.87 1016.03 1016.15 1016.27 1016.39 1016.47 1016.59 1016.67 1016.75 1016.79 1016.83 1016.91 1016.99 1017.03 1017.11 1017.15 1017.23 1017.31
1019.03 1019.11 1019.19 1019.31 1019.35 1019.59 1019.59 1019.67 1019.75 1019.67 1019.63 1019.63 1019.75 1019.67 1019.79 1019.67 1019.75 1019.95 1019.87 1019.75 1019.91 1019.99 1020.15 1019.87 1019.51 1019.47 1018.75 1018.75 1019.31 1018.27 1017.83 1018.03 1018.19 1018.67 1018.59 1018.43 1017.47 1017.23 1017.35 1017.39 1016.47 1015.87 1015.67 1015.43 1015.31 1014.99 1014.71 1014.91 1015.07 1015.07 1015.23 1015.27 1015.23 1015.27 1015.31 1015.35 1015.43 1015.59 1015.75 1015.91 1016.03 1016.11 1016.19 1016.27 1016.39 1016.47 1016.51 1016.59 1016.67 1016.75 1016.83 1016.91 1016.95 1017.03
1018.55 1018.63 1018.63 1018.59 1018.71 1018.91 1019.03 1019.19 1019.23 1019.23 1019.63 1019.47 1019.75 1019.43 1019.47 1019.63 1019.87 1019.99 1019.91 1019.91 1019.99 1020.07 1020.03 1019.99 1019.87 1019.55 1019.63 1019.15 1018.47 1018.03 1018.03 1018.47 1018.43 1017.99 1018.31 1018.95 1018.55 1018.07 1017.35 1016.99 1017.03 1016.43 1016.19 1016.03 1015.23 1014.63 1014.59 1014.71 1014.75 1014.67 1014.79 1014.87 1014.83 1014.83 1014.99 1014.99 1015.03 1015.11 1015.23 1015.43 1015.51 1015.63 1015.75 1015.87 1015.99 1016.07 1016.19 1016.27 1016.35 1016.43 1016.51 1016.63 1016.71 1016.75
1018.51 1018.39 1018.27 1018.23 1018.15 1018.23 1018.55 1018.79 1018.95 1019.07 1019.39 1019.67 1019.87 1019.63 1019.51 1019.71 1019.91 1020.07 1020.03 1020.07 1020.11 1020.19 1020.19 1020.19 1019.75 1019.79 1019.71 1019.35 1019.15 1018.95 1018.87 1019.03 1018.99 1017.99 1017.71 1018.19 1017.91 1017.63 1017.63 1017.07 1016.39 1016.31 1016.39 1015.95 1015.51 1015.35 1015.07 1015.11 1014.75 1014.47 1014.51 1014.31 1014.23 1014.31 1014.39 1014.27 1014.55 1014.71 1014.83 1014.95 1015.07 1015.19 1015.31 1015.43 1015.55 1015.67 1015.79 1015.91 1015.99 1016.07 1016.15 1016.27 1016.39 1016.47
1018.43 1018.31 1018.11 1018.03 1018.15 1018.39 1018.55 1018.83 1019.03 1019.15 1019.27 1019.43 1019.43 1019.63 1019.75 1019.91 1020.11 1020.23 1020.35 1020.31 1020.19 1020.23 1020.47 1020.27 1019.95 1020.03 1019.75 1019.23 1018.87 1018.91 1018.55 1017.99 1017.55 1017.67 1017.83 1018.51 1018.03 1017.83 1017.91 1017.39 1016.71 1015.99 1016.07 1016.27 1016.39 1015.79 1014.95 1014.95 1014.91 1014.63 1014.59 1013.75 1013.51 1013.47 1013.63 1013.83 1013.87 1014.11 1014.39 1014.59 1014.71 1014.83 1014.95 1015.11 1015.19 1015.31 1015.43 1015.55 1015.63 1015.71 1015.79 1015.87 1015.99 1016.07
1018.67 1018.31 1018.07 1017.95 1018.11 1018.31 1018.59 1018.75 1018.95 1019.07 1019.19 1019.27 1019.43 1019.47 1019.55 1019.67 1019.91 1020.19 1020.31 1020.19 1019.95 1020.19 1020.19 1019.79 1019.71 1019.67 1019.67 1019.19 1018.67 1018.63 1018.15 1017.67 1017.87 1018.11 1018.07 1018.19 1018.19 1018.63 1019.03 1019.27 1017.35 1015.83 1015.99 1016.43 1016.67 1016.27 1015.07 1014.95 1015.43 1014.87 1014.39 1013.79 1013.47 1013.19 1012.91 1012.91 1013.31 1013.63 1013.91 1014.15 1014.27 1014.39 1014.51 1014.63 1014.83 1014.99 1015.11 1015.23 1015.31 1015.39 1015.47 1015.55 1015.63 1015.71
1018.51 1018.47 1018.11 1017.87 1017.63 1017.91 1018.35 1018.67 1018.79 1018.99 1019.11 1019.23 1019.27 1019.31 1019.39 1019.43 1019.47 1019.47 1019.83 1020.07 1020.11 1019.95 1020.03 1019.99 1019.71 1019.59 1019.59 1019.23 1018.79 1018.51 1018.35 1018.43 1018.35 1018.23 1018.27 1018.47 1018.67 1018.79 1018.83 1018.59 1018.63 1016.51 1015.67 1016.59 1016.87 1016.55 1015.11 1014.75 1014.95 1014.95 1014.35 1013.71 1013.23 1012.75 1012.83 1012.99 1013.11 1013.27 1013.51 1013.71 1013.87 1013.99 1014.11 1014.23 1014.39 1014.59 1014.71 1014.87 1014.99 1015.07 1015.15 1015.23 1015.27 1015.35
1018.43 1018.39 1018.43 1018.03 1017.71 1018.03 1018.79 1018.39 1018.59 1018.87 1018.95 1019.03 1019.11 1019.15 1019.23 1019.31 1019.27 1019.31 1019.35 1019.39 1019.59 1019.43 1019.83 1019.99 1019.79 1019.43 1019.23 1019.43 1019.03 1018.47 1018.55 1018.23 1018.83 1018.55 1018.63 1018.51 1018.47 1018.39 1018.59 1018.27 1017.79 1016.79 1015.91 1016.59 1016.99 1016.99 1015.59 1015.11 1015.31 1015.07 1014.03 1013.43 1013.03 1012.71 1012.67 1012.75 1012.87 1012.99 1013.19 1013.31 1013.43 1013.55 1013.71 1013.91 1014.07 1014.23 1014.35 1014.51 1014.63 1014.79 1014.87 1014.95 1014.99 1015.03
1018.07 1018.27 1018.35 1018.43 1018.39 1017.99 1017.99 1018.11 1018.23 1018.39 1018.47 1018.71 1019.03 1019.15 1019.19 1019.07 1018.87 1018.87 1018.99 1019.03 1019.07 1019.19 1019.39 1019.55 1019.83 1019.03 1018.71 1019.19 1018.71 1018.27 1018.03 1018.47 1018.87 1018.79 1018.91 1018.51 1018.63 1018.55 1018.51 1017.71 1017.35 1016.43 1015.83 1016.75 1016.75 1016.99 1016.07 1015.23 1015.35 1015.27 1014.15 1013.35 1013.03 1012.55 1012.19 1012.43 1012.67 1012.79 1012.87 1012.95 1013.07 1013.23 1013.39 1013.55 1013.71 1013.83 1013.95 1014.07 1014.19 1014.31 1014.47 1014.59 1014.71 1014.75
1018.03 1018.39 1018.59 1018.15 1018.15 1018.19 1018.83 1019.43 1019.15 1019.03 1019.31 1019.07 1018.95 1018.95 1018.91 1018.75 1018.55 1018.43 1018.39 1018.51 1018.79 1019.07 1018.83 1018.79 1018.79 1018.55 1018.39 1018.47 1018.27 1018.15 1017.99 1018.19 1018.27 1018.23 1018.39 1018.19 1018.03 1017.71 1017.11 1016.87 1016.47 1016.15 1015.39 1015.55 1016.23 1017.59 1016.03 1015.07 1015.55 1015.11 1014.47 1013.51 1013.11 1012.55 1012.35 1012.31 1012.39 1012.51 1012.63 1012.71 1012.79 1012.95 1013.11 1013.23 1013.35 1013.47 1013.59 1013.67 1013.75 1013.79 1013.91 1014.03 1014.19 1014.35
1017.87 1017.67 1017.75 1017.91 1018.39 1019.55 1019.95 1019.99 1019.67 1019.51 1019.27 1019.31 1019.51 1019.43 1019.19 1019.23 1018.91 1018.95 1019.27 1019.07 1018.83 1018.43 1018.39 1018.35 1018.19 1017.87 1018.03 1018.15 1018.15 1018.11 1018.15 1018.11 1017.87 1017.71 1017.47 1017.35 1017.55 1017.75 1017.91 1017.91 1016.75 1016.63 1015.23 1014.91 1015.83 1016.63 1016.19 1014.91 1015.15 1014.79 1013.95 1013.71 1013.87 1013.11 1012.59 1012.35 1012.39 1012.43 1012.47 1012.47 1012.55 1012.75 1012.83 1012.91 1012.99 1013.11 1013.23 1013.31 1013.39 1013.47 1013.51 1013.63 1013.75 1013.95
1017.47 1018.27 1018.79 1018.87 1019.51 1019.51 1020.07 1020.27 1019.95 1019.79 1019.67 1019.67 1019.75 1019.71 1019.63 1019.27 1019.03 1018.91 1018.47 1018.43 1018.39 1018.27 1018.31 1018.35 1018.19 1018.19 1018.19 1018.19 1018.15 1018.07 1018.03 1018.15 1018.11 1018.27 1018.55 1018.43 1017.55 1017.95 1018.35 1017.79 1017.35 1016.83 1015.79 1015.23 1015.47 1015.95 1016.43 1015.31 1015.19 1015.15 1014.39 1014.15 1014.07 1013.47 1012.91 1012.51 1012.63 1012.35 1012.27 1012.43 1012.51 1012.51 1012.55 1012.59 1012.67 1012.75 1012.83 1012.91 1012.99 1013.15 1013.27 1013.39 1013.59 1013.87
1018.99 1019.75 1019.35 1018.99 1019.27 1019.83 1020.47 1020.51 1020.23 1020.19 1019.95 1019.91 1019.83 1019.87 1019.83 1019.83 1019.63 1019.27 1018.91 1018.79 1018.55 1018.35 1018.39 1018.23 1018.15 1018.07 1018.03 1017.95 1017.91 1017.87 1017.79 1017.75 1017.95 1018.47 1019.07 1017.95 1017.59 1018.15 1018.19 1018.47 1017.63 1016.75 1016.15 1015.75 1015.11 1016.31 1016.47 1015.55 1015.19 1015.51 1014.67 1014.19 1013.75 1013.47 1012.99 1012.67 1012.51 1012.39 1012.43 1012.59 1012.55 1012.43 1012.31 1012.35 1012.39 1012.43 1012.51 1012.59 1012.67 1012.75 1012.91 1013.15 1013.59 1013.83
1020.31 1020.47 1020.55 1020.31 1020.27 1020.43 1020.67 1020.67 1020.59 1020.39 1020.19 1019.99 1020.03 1019.87 1019.91 1019.91 1019.87 1019.55 1019.31 1019.15 1019.03 1018.79 1018.59 1018.35 1018.11 1017.99 1017.71 1017.51 1017.39 1017.23 1017.19 1017.15 1017.35 1017.59 1017.71 1017.55 1018.15 1018.71 1018.71 1018.39 1018.07 1018.11 1017.07 1015.99 1015.27 1016.87 1016.43 1016.19 1015.51 1015.59 1015.91 1015.91 1014.19 1013.35 1013.15 1012.95 1012.63 1012.35 1012.23 1012.19 1012.27 1012.31 1012.35 1012.23 1012.15 1012.15 1012.19 1012.27 1012.39 1012.51 1012.63 1012.87 1013.27 1013.23
1020.59 1020.51 1020.47 1020.59 1020.91 1020.95 1020.99 1020.83 1020.71 1020.63 1020.51 1020.47 1020.11 1019.91 1019.83 1019.99 1020.07 1019.55 1019.47 1019.27 1019.23 1019.11 1018.83 1018.55 1018.23 1018.07 1017.67 1017.39 1017.07 1016.79 1016.59 1016.55 1016.75 1016.99 1017.11 1017.39 1017.83 1018.39 1018.47 1018.39 1018.39 1018.67 1017.67 1016.03 1015.43 1016.83 1016.31 1015.91 1016.07 1015.27 1015.79 1016.59 1016.19 1014.23 1013.43 1013.23 1012.75 1012.47 1012.15 1012.11 1012.19 1011.95 1011.95 1012.03 1012.15 1012.19 1012.27 1012.27 1012.23 1012.19 1012.27 1012.63 1012.87 1012.75
1020.79 1020.39 1020.27 1020.23 1020.75 1020.91 1020.99 1020.95 1020.87 1020.83 1020.71 1020.63 1020.35 1019.99 1019.99 1020.19 1020.31 1020.15 1019.79 1019.35 1019.15 1018.95 1018.63 1018.39 1018.07 1017.79 1017.51 1017.23 1016.87 1016.55 1016.31 1016.51 1016.99 1016.91 1016.87 1016.91 1017.19 1017.71 1018.03 1018.07 1017.87 1017.55 1016.71 1015.87 1015.43 1016.15 1016.79 1016.11 1016.19 1015.55 1015.55 1015.51 1015.27 1014.91 1013.91 1013.59 1012.95 1012.59 1012.23 1012.15 1012.31 1011.91 1011.79 1011.75 1011.63 1011.55 1011.67 1011.91 1012.11 1012.11 1012.23 1012.35 1012.43 1012.27
1020.83 1020.47 1020.35 1020.27 1020.79 1020.99 1021.11 1021.03 1020.95 1020.75 1020.67 1020.51 1020.35 1020.07 1020.35 1020.43 1020.39 1020.27 1019.91 1019.47 1018.95 1018.63 1018.47 1018.27 1018.23 1018.07 1017.99 1017.75 1017.35 1016.99 1016.87 1016.75 1016.55 1016.67 1016.67 1016.79 1016.87 1016.83 1016.91 1017.31 1017.71 1017.71 1016.99 1015.47 1015.35 1015.75 1016.19 1016.31 1015.95 1015.99 1015.79 1016.03 1015.59 1015.19 1015.11 1014.23 1013.27 1012.59 1012.19 1011.99 1011.87 1011.67 1011.63 1011.75 1011.51 1011.47 1011.35 1011.43 1011.51 1011.71 1011.83 1011.87 1011.87 1011.83
1020.71 1020.35 1020.11 1020.27 1020.75 1020.91 1020.91 1020.95 1020.87 1020.83 1020.71 1020.47 1020.23 1020.35 1020.31 1020.31 1020.27 1020.11 1019.63 1019.31 1019.19 1018.99 1018.71 1018.63 1018.75 1018.55 1018.19 1017.95 1017.75 1017.51 1017.51 1017.15 1017.07 1017.03 1016.83 1016.63 1016.47 1016.35 1016.11 1015.91 1015.95 1016.11 1015.67 1015.27 1015.07 1015.23 1015.67 1015.99 1015.43 1016.11 1016.47 1016.19 1016.31 1015.43 1015.07 1014.91 1013.99 1012.79 1012.59 1012.15 1011.83 1011.59 1011.27 1011.27 1011.39 1011.51 1011.47 1011.55 1011.31 1010.83 1010.79 1011.15 1011.47 1011.43
1020.23 1020.19 1020.31 1020.63 1020.95 1021.03 1020.95 1020.87 1020.83 1020.67 1020.63 1020.31 1020.15 1020.15 1020.19 1020.15 1020.07 1019.75 1019.39 1019.23 1019.03 1018.95 1018.91 1018.99 1018.83 1018.59 1018.19 1018.03 1017.99 1017.83 1017.63 1017.51 1017.35 1017.11 1016.71 1016.39 1016.19 1016.15 1016.07 1015.83 1015.67 1015.43 1015.31 1015.15 1014.95 1014.87 1015.07 1015.59 1015.55 1015.31 1015.59 1016.23 1016.55 1016.39 1015.75 1014.27 1013.91 1013.47 1013.27 1012.27 1011.95 1011.67 1011.31 1011.23 1011.55 1011.47 1011.39 1011.43 1011.07 1010.79 1010.95 1011.19 1011.27 1011.67
1020.55 1020.79 1020.95 1020.91 1020.79 1020.71 1020.63 1020.59 1020.51 1020.35 1020.15 1020.11 1020.11 1020.11 1019.99 1019.91 1019.51 1019.19 1019.15 1018.91 1018.95 1019.31 1019.31 1018.99 1018.67 1018.51 1018.39 1018.23 1018.11 1017.79 1017.67 1017.47 1017.11 1017.03 1016.83 1016.63 1016.47 1016.07 1015.87 1015.79 1015.59 1015.31 1014.99 1014.71 1014.55 1014.63 1014.87 1015.27 1015.47 1015.43 1015.63 1015.75 1016.15 1015.71 1015.47 1015.15 1014.31 1013.71 1013.15 1013.03 1012.87 1011.95 1011.59 1011.27 1011.15 1011.35 1011.31 1011.07 1011.23 1011.27 1011.19 1010.83 1010.71 1010.67
1020.79 1020.71 1020.67 1020.59 1020.51 1020.43 1020.39 1020.35 1020.15 1019.87 1019.63 1019.83 1019.95 1019.83 1019.75 1019.43 1019.03 1018.87 1018.79 1018.95 1019.23 1019.43 1019.11 1018.87 1018.83 1018.51 1018.27 1018.23 1018.07 1017.83 1017.71 1017.87 1017.79 1017.55 1017.55 1017.43 1017.07 1016.71 1016.63 1016.59 1016.31 1015.63 1014.91 1014.55 1014.39 1014.47 1014.71 1014.99 1015.27 1015.39 1015.55 1015.47 1015.31 1015.43 1015.03 1014.91 1014.51 1013.71 1013.19 1013.11 1012.55 1011.71 1011.31 1011.23 1011.39 1011.31 1011.39 1011.51 1011.35 1011.11 1010.59 1010.31 1010.19 1010.19
1020.67 1020.51 1020.43 1020.31 1020.23 1020.19 1020.11 1020.11 1020.03 1019.95 1019.75 1019.63 1019.35 1019.15 1018.91 1018.79 1018.71 1018.51 1018.43 1018.71 1019.03 1019.03 1018.91 1018.75 1018.55 1018.35 1018.19 1018.03 1018.03 1018.15 1018.11 1018.11 1017.71 1017.39 1017.55 1017.55 1017.35 1017.23 1016.95 1017.11 1016.95 1016.27 1015.43 1014.79 1014.39 1014.31 1014.47 1014.63 1014.71 1014.99 1015.63 1015.43 1015.07 1014.91 1014.55 1014.35 1014.39 1013.87 1013.19 1012.63 1012.51 1013.27 1011.87 1011.31 1011.43 1011.55 1011.31 1011.27 1011.11 1010.75 1010.39 1010.07 1009.83 1009.55
1020.87 1020.67 1020.39 1020.19 1020.03 1019.87 1019.75 1019.59 1019.39 1019.19 1019.11 1019.11 1018.99 1018.75 1018.59 1018.31 1018.11 1018.15 1018.19 1018.35 1018.67 1018.91 1018.87 1018.67 1018.59 1018.59 1018.47 1018.51 1018.31 1018.15 1018.11 1017.99 1017.79 1017.51 1017.63 1017.79 1017.79 1017.39 1017.19 1017.39 1017.23 1016.55 1015.99 1015.39 1014.87 1014.51 1014.39 1014.31 1014.35 1014.51 1014.83 1015.07 1015.31 1014.71 1014.19 1014.15 1014.07 1013.59 1013.19 1012.55 1012.27 1011.87 1011.51 1011.87 1011.67 1011.39 1011.11 1011.15 1011.19 1010.91 1010.47 1010.15 1009.91 1009.47
1020.87 1020.59 1020.43 1020.27 1020.07 1019.91 1019.63 1019.31 1019.15 1018.95 1018.91 1018.83 1018.71 1018.75 1018.63 1018.39 1018.19 1018.19 1018.59 1019.11 1019.23 1019.11 1019.15 1019.23 1019.19 1019.03 1018.87 1018.83 1018.59 1018.43 1018.43 1018.31 1018.15 1017.71 1017.79 1017.71 1017.75 1017.47 1017.35 1017.51 1017.11 1016.79 1016.55 1016.15 1015.63 1015.15 1014.71 1014.43 1014.23 1014.31 1014.31 1014.27 1014.23 1014.23 1014.35 1014.31 1013.59 1013.07 1012.99 1012.47 1012.23 1012.19 1011.79 1011.43 1011.43 1011.35 1010.99 1011.15 1011.19 1010.79 1010.39 1009.79 1009.35 1009.07
1021.39 1020.79 1020.27 1019.71 1019.43 1019.39 1019.39 1019.27 1018.95 1018.71 1018.63 1018.75 1018.79 1018.51 1018.55 1018.55 1018.31 1018.35 1018.75 1018.99 1019.11 1019.15 1019.15 1018.99 1018.95 1018.95 1018.95 1018.87 1018.63 1018.55 1018.55 1018.43 1018.19 1017.91 1017.95 1017.83 1017.47 1017.67 1017.59 1017.43 1017.11 1016.63 1016.51 1016.31 1015.91 1015.51 1015.11 1014.79 1014.43 1014.15 1013.95 1013.87 1013.47 1013.35 1013.43 1013.71 1013.47 1012.87 1012.43 1012.19 1012.11 1012.15 1011.55 1011.31 1011.15 1010.95 1010.91 1010.99 1010.95 1010.83 1010.31 1009.67 1008.95 1008.47
1021.07 1020.43 1019.87 1019.39 1019.07 1019.23 1019.11 1019.07 1018.99 1019.15 1019.15 1019.07 1019.11 1018.91 1018.43 1018.07 1017.99 1019.11 1019.71 1019.79 1019.59 1019.27 1019.15 1019.23 1019.27 1019.31 1019.27 1019.19 1018.99 1018.99 1018.91 1018.83 1018.59 1018.19 1017.79 1017.59 1017.55 1017.59 1017.43 1017.39 1017.11 1016.91 1016.67 1016.39 1016.07 1015.59 1015.23 1014.99 1014.91 1014.95 1014.71 1014.35 1013.95 1012.91 1012.11 1012.15 1012.75 1012.47 1012.19 1011.99 1011.83 1011.83 1011.67 1011.39 1011.27 1011.07 1010.87 1010.63 1010.47 1010.67 1009.99 1009.35 1008.75 1007.99
1020.79 1020.11 1019.91 1019.87 1019.71 1019.59 1019.51 1019.19 1019.11 1019.03 1019.07 1019.15 1019.23 1019.07 1018.91 1018.63 1018.95 1019.63 1020.11 1020.15 1019.91 1019.71 1019.59 1019.75 1019.79 1019.59 1019.43 1019.31 1019.23 1019.23 1019.15 1018.99 1018.67 1018.31 1018.15 1017.99 1017.83 1017.63 1017.43 1017.39 1017.19 1016.87 1016.59 1016.47 1016.15 1015.63 1015.47 1015.47 1015.47 1015.71 1015.63 1015.07 1014.75 1014.35 1013.35 1011.55 1011.51 1011.91 1012.35 1012.31 1011.95 1011.99 1011.83 1011.63 1011.35 1011.11 1010.99 1010.75 1010.35 1010.27 1010.15 1009.55 1008.67 1007.79
1020.55 1020.11 1020.07 1019.99 1019.83 1019.79 1019.79 1019.63 1019.79 1020.03 1019.95 1019.91 1019.91 1019.91 1019.87 1019.59 1019.39 1019.71 1020.15 1020.07 1020.03 1019.95 1019.99 1020.11 1019.95 1019.83 1019.71 1019.55 1019.51 1019.47 1019.27 1019.07 1018.95 1018.71 1018.51 1018.15 1017.95 1017.83 1017.71 1017.43 1017.23 1017.07 1016.95 1016.59 1016.23 1016.07 1015.95 1016.03 1015.79 1015.75 1015.59 1015.27 1015.07 1014.79 1013.83 1012.39 1011.91 1011.79 1012.27 1012.79 1012.59 1012.27 1012.15 1011.83 1011.59 1011.23 1010.63 1010.39 1009.99 1009.67 1009.43 1008.95 1008.39 1007.55
1020.79 1020.23 1020.03 1020.07 1020.11 1019.91 1019.99 1020.07 1020.23 1020.31 1020.31 1020.31 1020.43 1020.47 1020.43 1020.31 1019.95 1019.99 1020.11 1020.23 1020.27 1020.19 1020.11 1020.15 1020.11 1020.03 1019.87 1019.79 1019.83 1019.63 1019.39 1019.19 1019.03 1018.95 1018.71 1018.47 1018.39 1018.19 1018.03 1017.95 1017.67 1017.39 1017.15 1016.91 1016.71 1016.51 1016.23 1016.03 1015.75 1015.39 1015.35 1015.47 1015.35 1014.91 1014.47 1013.47 1013.23 1012.51 1012.11 1012.59 1012.83 1012.39 1011.99 1011.79 1011.55 1011.15 1010.47 1009.79 1009.55 1008.95 1008.51 1008.43 1007.87 1007.15
1020.47 1020.31 1020.31 1020.23 1020.15 1020.35 1020.39 1020.67 1020.67 1020.71 1020.67 1020.67 1020.71 1020.79 1020.71 1020.71 1020.63 1020.55 1020.55 1020.55 1020.55 1020.55 1020.63 1020.67 1020.51 1020.27 1020.23 1020.03 1019.75 1019.63 1019.51 1019.43 1019.35 1019.19 1018.99 1018.75 1018.59 1018.55 1018.47 1018.27 1018.07 1017.71 1017.63 1017.47 1017.03 1016.55 1016.15 1015.91 1015.67 1015.47 1015.43 1015.75 1015.99 1015.67 1015.19 1014.75 1013.91 1012.63 1011.91 1012.11 1012.31 1012.11 1011.71 1011.51 1011.19 1010.67 1010.23 1009.83 1009.27 1008.71 1008.39 1007.75 1007.19 1006.75
1020.39 1020.51 1020.67 1020.75 1020.79 1020.75 1020.83 1020.91 1020.91 1021.07 1021.07 1020.95 1020.95 1021.07 1021.15 1021.07 1021.07 1021.07 1020.87 1020.79 1020.87 1020.95 1020.91 1020.71 1020.47 1020.35 1020.15 1019.91 1019.79 1019.67 1019.63 1019.59 1019.51 1019.31 1019.15 1018.99 1018.87 1018.83 1018.67 1018.51 1018.55 1018.35 1018.07 1017.67 1017.27 1016.75 1016.47 1016.15 1015.79 1015.75 1015.87 1015.67 1015.31 1014.83 1014.43 1013.95 1013.15 1012.47 1011.83 1011.15 1011.03 1011.19 1011.07 1010.87 1010.79 1010.55 1010.31 1009.95 1009.59 1009.31 1008.79 1008.11 1007.79 1006.83
1021.23 1021.35 1021.55 1021.59 1021.63 1021.59 1021.59 1021.59 1021.67 1021.63 1021.67 1021.59 1021.51 1021.35 1021.27 1021.47 1021.67 1021.43 1021.27 1021.23 1021.19 1020.95 1020.75 1020.59 1020.47 1020.43 1020.27 1020.15 1020.03 1019.95 1019.95 1019.87 1019.75 1019.63 1019.47 1019.31 1019.15 1019.03 1019.03 1019.11 1018.87 1018.47 1018.19 1017.71 1017.31 1016.91 1016.59 1016.11 1015.79 1015.67 1015.55 1015.23 1014.75 1014.27 1014.07 1013.87 1013.55 1012.75 1012.15 1011.35 1010.75 1010.63 1010.63 1010.75 1010.71 1010.55 1010.19 1009.75 1009.67 1009.51 1009.11 1008.75 1008.19 1007.47
1021.75 1021.91 1022.03 1022.11 1022.23 1022.19 1022.07 1022.11 1022.15 1022.11 1021.99 1021.87 1021.67 1021.59 1021.63 1021.67 1021.51 1021.51 1021.39 1021.07 1020.99 1020.87 1020.75 1020.55 1020.39 1020.51 1020.47 1020.39 1020.35 1020.35 1020.35 1020.23 1020.07 1019.79 1019.63 1019.55 1019.51 1019.43 1019.31 1019.11 1018.79 1018.35 1018.11 1017.79 1017.39 1016.95 1016.35 1015.95 1015.67 1015.47 1015.23 1015.07 1014.91 1015.03 1014.71 1014.23 1013.67 1012.83 1012.23 1011.59 1010.95 1010.55 1010.23 1009.99 1010.03 1010.11 1010.15 1010.07 1009.99 1009.79 1009.35 1008.67 1008.23 1007.83
1022.23 1022.19 1022.27 1022.31 1022.43 1022.47 1022.47 1022.47 1022.39 1022.31 1022.19 1022.19 1022.11 1022.07 1021.99 1021.71 1021.47 1021.39 1021.31 1021.27 1021.27 1021.23 1021.19 1021.19 1021.19 1021.19 1021.11 1020.99 1020.91 1020.87 1020.83 1020.67 1020.55 1020.55 1020.51 1020.39 1020.11 1019.83 1019.51 1019.11 1018.79 1018.51 1018.27 1017.87 1017.39 1017.03 1016.55 1016.19 1015.95 1015.75 1015.39 1015.23 1014.91 1014.71 1014.43 1013.91 1013.47 1013.03 1012.47 1011.95 1011.31 1010.79 1010.31 1010.03 1009.71 1009.51 1009.31 1009.07 1008.99 1008.83 1008.75 1008.59 1008.63 1008.15
1022.67 1022.63 1022.43 1022.43 1022.55 1022.55 1022.47 1022.35 1022.35 1022.35 1022.35 1022.23 1022.19 1022.07 1021.83 1021.83 1021.79 1021.63 1021.59 1021.55 1021.79 1021.87 1021.91 1021.91 1021.79 1021.71 1021.71 1021.67 1021.63 1021.59 1021.55 1021.43 1021.35 1021.27 1020.95 1020.59 1020.31 1020.03 1019.71 1019.43 1019.19 1018.91 1018.55 1018.19 1017.79 1017.43 1017.11 1016.71 1016.35 1016.11 1015.87 1015.59 1015.27 1015.03 1014.55 1013.99 1013.47 1012.99 1012.59 1012.11 1011.67 1011.43 1010.99 1010.31 1009.63 1009.03 1008.55 1008.27 1008.07 1007.91 1007.71 1007.51 1007.23 1006.67
1023.19 1023.15 1022.99 1022.87 1022.83 1022.59 1022.39 1022.31 1022.43 1022.51 1022.51 1022.39 1022.23 1022.07 1022.07 1021.99 1021.91 1021.91 1021.99 1022.11 1022.07 1022.11 1022.19 1022.23 1022.27 1022.31 1022.47 1022.47 1022.55 1022.43 1022.23 1022.11 1021.83 1021.39 1021.15 1020.87 1020.55 1020.35 1020.11 1019.87 1019.59 1019.31 1019.03 1018.71 1018.31 1017.75 1017.43 1017.15 1016.83 1016.55 1016.23 1015.75 1015.43 1015.15 1014.67 1014.35 1013.83 1013.31 1012.79 1012.47 1011.99 1011.51 1010.95 1010.47 1010.03 1009.55 1009.07 1008.39 1007.87 1007.79 1007.51 1007.19 1006.79 1006.43
Thickness
5798 5798 5799 5798 5798 5802 5803 5803 5805 5804 5801 5801 5800 5799 5794 5784 5775 5772 5774 5776 5783 5795 5799 5796 5795 5800 5802 5801 5803 5804 5803 5802 5803 5802 5801 5802 5803 5803 5803 5802 5802 5801 5799 5798 5797 5797 5796 5796 5795 5795 5794 5793 5792 5791 5790 5789 5788 5786 5786 5785 5784 5784 5783 5783 5782 5782 5781 5780 5780 5779 5779 5779 5779 5779
5797 5797 5798 5799 5799 5801 5802 5802 5806 5805 5801 5801 5801 5800 5799 5793 5784 5777 5772 5773 5782 5791 5797 5801 5799 5799 5803 5804 5803 5805 5806 5804 5805 5803 5803 5805 5805 5806 5806 5805 5803 5802 5801 5801 5800 5799 5799 5798 5798 5797 5797 5796 5795 5794 5793 5792 5791 5790 5788 5788 5786 5786 5785 5785 5784 5784 5783 5782 5782 5782 5781 5781 5781 5780
5796 5795 5795 5796 5797 5800 5802 5802 5804 5805 5803 5802 5801 5801 5801 5797 5792 5787 5777 5773 5783 5791 5793 5799 5804 5804 5805 5805 5803 5804 5806 5805 5806 5806 5805 5807 5807 5808 5809 5808 5806 5804 5803 5803 5803 5802 5801 5800 5800 5800 5800 5799 5798 5797 5796 5795 5794 5792 5791 5790 5789 5788 5787 5787 5786 5786 5785 5784 5784 5783 5783 5783 5783 5782
5795 5793 5792 5794 5795 5797 5799 5800 5802 5803 5803 5803 5802 5800 5800 5798 5795 5793 5785 5775 5780 5792 5796 5797 5803 5807 5806 5805 5804 5804 5805 5806 5806 5806 5807 5808 5808 5810 5812 5812 5809 5807 5805 5804 5804 5804 5803 5803 5803 5802 5802 5801 5801 5800 5799 5798 5797 5795 5794 5793 5792 5791 5790 5789 5788 5787 5787 5787 5786 5785 5785 5785 5784 5784
5794 5793 5791 5792 5795 5797 5797 5798 5800 5802 5802 5802 5801 5800 5799 5798 5797 5795 5789 5780 5780 5790 5798 5798 5801 5806 5805 5803 5804 5803 5803 5805 5806 5806 5807 5808 5809 5811 5813 5813 5811 5809 5807 5806 5806 5807 5806 5805 5805 5804 5804 5804 5803 5803 5802 5801 5800 5799 5797 5796 5794 5794 5793 5792 5791 5790 5789 5789 5788 5787 5787 5786 5786 5786
5793 5792 5791 5792 5795 5797 5796 5797 5799 5800 5802 5802 5801 5802 5800 5798 5799 5798 5791 5785 5782 5784 5793 5797 5799 5804 5804 5801 5803 5804 5803 5805 5806 5806 5807 5808 5811 5812 5813 5814 5813 5811 5810 5809 5809 5809 5809 5808 5807 5807 5806 5806 5805 5805 5805 5804 5803 5802 5800 5799 5797 5796 5795 5794 5793 5792 5791 5791 5790 5790 5789 5788 5788 5787
5792 5792 5791 5792 5796 5797 5796 5796 5798 5799 5800 5801 5799 5799 5800 5797 5797 5798 5795 5788 5784 5783 5789 5795 5797 5800 5802 5801 5804 5806 5806 5807 5807 5807 5808 5809 5811 5813 5813 5815 5815 5813 5812 5813 5813 5812 5812 5811 5810 5810 5809 5809 5808 5808 5808 5807 5806 5805 5804 5802 5801 5799 5798 5797 5796 5795 5794 5793 5792 5792 5791 5791 5790 5789
5793 5793 5792 5793 5795 5797 5794 5794 5797 5798 5798 5799 5797 5796 5798 5797 5795 5798 5796 5793 5789 5786 5786 5792 5796 5799 5800 5802 5805 5807 5807 5808 5809 5809 5809 5810 5811 5813 5813 5814 5817 5816 5816 5817 5817 5816 5815 5814 5814 5813 5812 5812 5812 5811 5810 5809 5809 5808 5807 5805 5803 5802 5801 5800 5799 5798 5797 5796 5795 5794 5793 5793 5792 5792
5794 5794 5793 5795 5796 5795 5793 5793 5795 5796 5796 5797 5798 5796 5796 5797 5796 5796 5796 5794 5793 5789 5786 5789 5795 5799 5800 5803 5806 5807 5806 5805 5807 5809 5810 5811 5812 5813 5813 5814 5816 5817 5819 5820 5819 5818 5818 5817 5816 5815 5815 5816 5815 5814 5813 5812 5811 5810 5810 5808 5807 5805 5804 5803 5802 5801 5800 5799 5798 5797 5796 5795 5794 5794
5796 5795 5795 5796 5797 5795 5794 5793 5795 5796 5796 5796 5796 5795 5795 5796 5796 5795 5794 5794 5793 5791 5789 5790 5793 5797 5801 5801 5802 5806 5806 5803 5802 5803 5806 5810 5812 5811 5811 5812 5814 5817 5819 5820 5819 5820 5821 5819 5818 5818 5818 5818 5818 5817 5816 5815 5815 5814 5812 5811 5810 5809 5807 5807 5805 5804 5803 5802 5801 5800 5799 5798 5796 5796
5798 5799 5798 5798 5798 5797 5796 5796 5796 5796 5796 5796 5796 5796 5795 5795 5795 5793 5794 5795 5794 5791 5792 5793 5793 5796 5799 5799 5800 5805 5808 5805 5803 5802 5800 5801 5806 5808 5808 5809 5812 5815 5817 5817 5819 5821 5822 5821 5821 5821 5821 5820 5820 5820 5819 5819 5818 5817 5816 5814 5813 5812 5811 5810 5809 5808 5806 5805 5804 5803 5801 5800 5799 5798
5800 5800 5801 5801 5801 5800 5799 5798 5798 5797 5796 5795 5795 5796 5796 5795 5793 5792 5792 5793 5792 5790 5790 5791 5793 5794 5795 5797 5799 5802 5804 5800 5799 5803 5801 5797 5800 5804 5806 5809 5811 5812 5814 5816 5819 5822 5822 5821 5822 5823 5822 5822 5822 5822 5822 5822 5821 5820 5819 5818 5816 5816 5815 5813 5812 5811 5809 5808 5807 5805 5803 5802 5801 5800
5800 5801 5802 5804 5804 5803 5801 5799 5798 5798 5796 5794 5793 5794 5795 5793 5791 5790 5790 5789 5789 5788 5787 5788 5790 5791 5791 5794 5796 5797 5798 5797 5798 5804 5804 5800 5800 5803 5803 5807 5811 5812 5813 5814 5816 5818 5820 5820 5822 5823 5823 5824 5826 5826 5825 5824 5823 5822 5821 5820 5819 5818 5817 5816 5814 5813 5812 5810 5809 5808 5806 5805 5803 5802
5798 5800 5802 5804 5804 5802 5800 5798 5796 5796 5795 5794 5793 5793 5792 5791 5789 5788 5787 5787 5787 5786 5785 5786 5788 5787 5788 5793 5795 5794 5798 5801 5802 5802 5801 5797 5799 5800 5798 5799 5808 5812 5812 5811 5810 5813 5817 5819 5819 5821 5824 5827 5828 5828 5828 5827 5825 5824 5823 5821 5820 5819 5818 5817 5816 5815 5813 5812 5812 5810 5809 5808 5806 5805
5795 5798 5801 5802 5803 5801 5799 5797 5795 5794 5793 5793 5792 5792 5792 5790 5789 5787 5785 5785 5786 5786 5785 5786 5788 5787 5786 5791 5795 5795 5799 5801 5800 5799 5798 5795 5795 5794 5790 5791 5799 5808 5811 5808 5806 5809 5815 5817 5816 5819 5823 5826 5828 5829 5830 5829 5827 5826 5824 5823 5821 5820 5819 5818 5817 5816 5814 5813 5812 5811 5810 5809 5808 5806
5793 5795 5797 5801 5803 5801 5797 5795 5794 5792 5791 5791 5791 5791 5791 5790 5790 5789 5788 5785 5786 5786 5785 5785 5785 5787 5786 5789 5792 5794 5796 5796 5795 5795 5795 5793 5791 5790 5789 5789 5794 5803 5808 5806 5802 5805 5812 5816 5815 5816 5822 5825 5828 5830 5830 5829 5827 5826 5825 5824 5823 5821 5820 5819 5817 5816 5815 5814 5812 5812 5811 5810 5809 5808
5793 5793 5794 5797 5800 5798 5795 5795 5795 5792 5791 5791 5790 5790 5790 5789 5790 5790 5789 5789 5787 5787 5785 5783 5783 5786 5787 5786 5789 5792 5793 5792 5791 5791 5790 5791 5790 5789 5789 5790 5794 5801 5805 5802 5799 5802 5809 5813 5812 5813 5820 5825 5827 5828 5829 5829 5827 5827 5826 5825 5824 5823 5821 5820 5818 5817 5816 5815 5813 5812 5811 5810 5809 5808
5793 5792 5791 5792 5794 5795 5794 5794 5793 5791 5791 5790 5790 5789 5789 5789 5791 5791 5790 5790 5789 5788 5786 5783 5783 5787 5788 5787 5788 5792 5792 5791 5789 5787 5787 5787 5788 5788 5790 5794 5797 5801 5804 5803 5800 5798 5805 5811 5809 5810 5818 5823 5825 5827 5828 5828 5828 5826 5826 5825 5824 5823 5822 5821 5819 5818 5817 5816 5815 5813 5812 5810 5809 5808
5791 5790 5790 5791 5792 5790 5787 5785 5785 5786 5786 5786 5786 5787 5787 5789 5791 5791 5790 5789 5788 5788 5788 5787 5787 5789 5789 5789 5789 5790 5790 5789 5789 5789 5789 5789 5790 5791 5794 5796 5799 5802 5806 5806 5800 5795 5802 5809 5806 5807 5816 5821 5822 5825 5826 5826 5827 5826 5825 5825 5825 5823 5822 5821 5820 5818 5817 5817 5815 5814 5813 5812 5810 5808
5791 5790 5790 5788 5786 5781 5777 5776 5778 5780 5781 5782 5781 5782 5783 5785 5786 5787 5785 5785 5786 5787 5788 5788 5789 5790 5788 5787 5787 5787 5787 5786 5788 5790 5789 5789 5791 5791 5790 5792 5796 5800 5806 5808 5803 5796 5801 5807 5806 5807 5814 5816 5816 5820 5823 5823 5824 5824 5824 5824 5823 5822 5821 5821 5820 5819 5818 5817 5815 5814 5813 5812 5811 5809
5787 5784 5782 5781 5778 5775 5772 5771 5772 5775 5777 5777 5777 5777 5778 5780 5781 5783 5783 5783 5784 5786 5785 5786 5786 5787 5786 5785 5785 5785 5785 5784 5785 5784 5781 5784 5788 5787 5785 5786 5791 5796 5801 5805 5804 5797 5796 5802 5804 5804 5810 5812 5812 5815 5819 5819 5818 5820 5822 5822 5820 5820 5820 5820 5820 5818 5817 5816 5815 5814 5813 5811 5809 5806
5776 5770 5769 5773 5773 5770 5767 5766 5767 5769 5770 5772 5772 5773 5773 5773 5774 5777 5779 5779 5781 5782 5783 5783 5783 5783 5784 5784 5785 5785 5784 5784 5784 5780 5778 5783 5786 5781 5778 5780 5785 5790 5794 5799 5800 5794 5791 5797 5798 5799 5803 5808 5810 5812 5814 5815 5815 5815 5816 5816 5816 5817 5817 5818 5818 5817 5816 5815 5814 5812 5811 5809 5806 5804
5762 5759 5757 5760 5762 5760 5760 5760 5760 5762 5764 5766 5768 5768 5769 5768 5769 5771 5774 5774 5776 5777 5778 5780 5781 5781 5782 5783 5784 5784 5784 5784 5783 5782 5782 5783 5781 5775 5774 5776 5777 5778 5783 5792 5795 5788 5786 5791 5793 5793 5793 5794 5802 5809 5811 5811 5813 5813 5813 5814 5814 5815 5815 5816 5815 5815 5815 5814 5812 5811 5810 5808 5804 5803
5753 5753 5751 5751 5752 5751 5753 5754 5754 5756 5758 5759 5761 5763 5764 5763 5763 5767 5768 5769 5770 5771 5773 5776 5778 5779 5781 5782 5783 5785 5786 5785 5783 5781 5782 5782 5778 5774 5771 5772 5772 5771 5778 5789 5790 5784 5783 5786 5788 5790 5789 5786 5792 5802 5805 5805 5808 5810 5811 5812 5812 5812 5813 5813 5812 5812 5811 5810 5810 5810 5809 5806 5804 5803
5746 5748 5748 5748 5747 5746 5747 5748 5749 5752 5752 5753 5755 5757 5757 5757 5757 5760 5762 5765 5767 5769 5771 5773 5775 5776 5778 5780 5781 5784 5784 5783 5781 5780 5779 5779 5777 5775 5772 5770 5771 5772 5777 5785 5787 5783 5782 5782 5782 5785 5787 5785 5787 5793 5797 5800 5803 5806 5808 5809 5808 5809 5809 5809 5810 5810 5808 5807 5807 5806 5806 5806 5804 5804
5741 5743 5744 5744 5741 5740 5742 5743 5745 5747 5747 5749 5751 5752 5752 5752 5752 5754 5758 5761 5764 5766 5768 5769 5769 5770 5771 5772 5775 5777 5777 5778 5777 5777 5776 5776 5775 5775 5775 5774 5771 5772 5776 5782 5784 5781 5779 5779 5780 5779 5777 5778 5781 5784 5787 5791 5797 5802 5805 5805 5805 5806 5805 5805 5806 5806 5805 5804 5804 5805 5806 5806 5806 5805
5737 5738 5740 5739 5736 5736 5738 5740 5741 5743 5743 5746 5747 5747 5747 5748 5748 5751 5754 5757 5758 5760 5762 5762 5761 5762 5764 5766 5768 5768 5769 5770 5770 5770 5771 5772 5773 5774 5775 5776 5775 5776 5778 5779 5780 5780 5778 5776 5777 5775 5772 5771 5774 5777 5780 5784 5790 5795 5797 5799 5802 5802 5802 5803 5802 5801 5800 5800 5803 5807 5808 5806 5804 5803
5735 5734 5734 5732 5731 5733 5735 5736 5737 5738 5740 5741 5743 5743 5743 5744 5746 5748 5751 5752 5753 5754 5753 5754 5754 5756 5758 5760 5760 5761 5763 5763 5764 5765 5767 5768 5770 5771 5772 5773 5773 5775 5776 5776 5777 5778 5777 5774 5774 5773 5772 5769 5768 5769 5774 5779 5783 5787 5790 5793 5796 5797 5798 5799 5798 5797 5798 5799 5801 5803 5802 5800 5799 5798
5728 5728 5727 5727 5728 5730 5731 5733 5735 5737 5739 5738 5738 5738 5740 5741 5743 5746 5747 5749 5749 5747 5747 5749 5749 5751 5753 5754 5755 5756 5758 5757 5758 5760 5761 5761 5763 5765 5767 5768 5769 5770 5773 5774 5774 5775 5774 5772 5770 5770 5769 5767 5765 5765 5769 5773 5778 5782 5784 5786 5789 5792 5795 5795 5794 5794 5797 5797 5797 5796 5795 5796 5798 5797
5721 5723 5724 5725 5726 5727 5729 5730 5731 5734 5736 5736 5735 5736 5737 5739 5742 5743 5744 5744 5743 5742 5743 5745 5745 5747 5749 5750 5751 5751 5751 5750 5752 5753 5753 5753 5756 5758 5759 5759 5760 5764 5767 5769 5770 5770 5769 5768 5767 5765 5764 5764 5764 5765 5766 5769 5772 5777 5780 5781 5783 5787 5790 5792 5791 5790 5791 5790 5791 5792 5794 5795 5796 5796
5717 5719 5721 5722 5724 5724 5725 5727 5728 5730 5732 5733 5734 5736 5737 5738 5740 5742 5743 5742 5740 5739 5740 5741 5742 5744 5745 5745 5745 5746 5745 5745 5746 5749 5748 5748 5748 5751 5751 5751 5751 5756 5761 5764 5765 5765 5764 5764 5764 5762 5759 5759 5761 5764 5766 5766 5767 5771 5775 5779 5779 5780 5784 5786 5785 5785 5786 5786 5787 5789 5792 5793 5793 5793
5713 5715 5717 5719 5721 5723 5724 5725 5728 5730 5731 5731 5732 5734 5735 5736 5738 5739 5739 5738 5736 5735 5735 5735 5736 5737 5738 5738 5738 5739 5739 5739 5741 5743 5743 5742 5742 5744 5745 5744 5745 5749 5754 5757 5758 5759 5759 5760 5760 5759 5757 5756 5757 5760 5762 5763 5765 5766 5769 5774 5776 5776 5778 5779 5778 5779 5782 5782 5781 5784 5787 5789 5790 5791
5708 5711 5714 5716 5718 5720 5722 5723 5726 5728 5729 5729 5729 5729 5731 5732 5733 5735 5733 5732 5730 5729 5728 5728 5729 5730 5730 5730 5731 5732 5732 5732 5734 5737 5737 5736 5737 5738 5738 5739 5741 5744 5746 5748 5751 5753 5754 5755 5755 5756 5756 5755 5756 5757 5757 5758 5762 5765 5766 5769 5771 5771 5773 5773 5773 5775 5777 5775 5775 5779 5783 5786 5788 5790
5703 5707 5712 5716 5717 5718 5718 5720 5722 5724 5725 5724 5724 5726 5727 5727 5729 5729 5727 5724 5723 5723 5723 5724 5724 5724 5723 5724 5725 5726 5725 5725 5726 5729 5730 5731 5732 5732 5732 5733 5736 5738 5739 5741 5744 5746 5748 5750 5750 5750 5751 5753 5755 5758 5758 5755 5758 5762 5765 5766 5766 5766 5768 5769 5769 5769 5771 5771 5770 5773 5778 5784 5787 5788
5701 5705 5709 5712 5714 5715 5715 5716 5718 5718 5718 5718 5718 5719 5721 5723 5723 5721 5717 5715 5715 5716 5717 5717 5716 5716 5716 5716 5717 5717 5716 5717 5719 5721 5723 5725 5725 5725 5726 5727 5729 5732 5733 5734 5736 5739 5741 5741 5741 5740 5741 5744 5746 5753 5758 5758 5755 5757 5760 5761 5761 5761 5761 5763 5763 5763 5765 5766 5765 5766 5771 5778 5785 5788
5698 5703 5705 5706 5707 5708 5708 5710 5711 5711 5711 5711 5710 5711 5712 5714 5713 5711 5707 5706 5707 5708 5708 5707 5705 5706 5708 5708 5709 5709 5709 5710 5712 5714 5715 5716 5717 5717 5719 5720 5721 5723 5725 5726 5728 5731 5731 5731 5729 5727 5728 5732 5734 5739 5749 5756 5755 5752 5751 5751 5751 5752 5751 5752 5755 5756 5758 5759 5760 5760 5763 5770 5779 5785
5692 5697 5698 5699 5699 5701 5701 5702 5701 5700 5700 5699 5700 5700 5700 5701 5702 5702 5700 5699 5699 5700 5700 5699 5698 5698 5700 5700 5700 5700 5701 5702 5704 5705 5706 5707 5708 5709 5710 5712 5713 5715 5716 5717 5719 5720 5720 5720 5720 5718 5719 5722 5724 5727 5736 5746 5748 5746 5743 5739 5739 5742 5742 5742 5745 5748 5751 5754 5756 5758 5760 5764 5772 5780
5686 5690 5691 5692 5692 5693 5693 5692 5691 5690 5690 5690 5689 5688 5689 5690 5691 5692 5692 5691 5691 5692 5692 5690 5690 5690 5691 5691 5692 5693 5694 5695 5695 5695 5697 5698 5699 5700 5700 5702 5703 5705 5706 5708 5709 5709 5710 5710 5711 5712 5711 5711 5712 5715 5720 5727 5733 5738 5737 5730 5727 5732 5735 5734 5736 5741 5745 5748 5752 5755 5757 5760 5765 5773
5682 5684 5684 5684 5684 5684 5683 5682 5682 5681 5681 5681 5681 5680 5680 5680 5680 5681 5682 5682 5681 5681 5681 5681 5682 5682 5683 5684 5685 5685 5686 5687 5687 5687 5689 5689 5690 5690 5690 5691 5692 5693 5695 5696 5698 5701 5702 5702 5703 5704 5702 5699 5699 5701 5704 5710 5719 5730 5734 5728 5723 5724 5728 5728 5730 5733 5737 5740 5742 5746 5750 5754 5759 5766
5675 5674 5673 5672 5673 5673 5673 5673 5672 5672 5671 5671 5671 5671 5671 5670 5669 5669 5671 5671 5671 5671 5671 5672 5673 5674 5675 5676 5677 5677 5677 5677 5677 5678 5679 5680 5680 5680 5680 5679 5680 5681 5683 5686 5689 5691 5693 5694 5695 5694 5692 5692 5693 5696 5698 5703 5709 5719 5726 5728 5726 5723 5722 5722 5723 5724 5727 5730 5731 5733 5737 5742 5747 5754
5662 5661 5660 5659 5659 5660 5661 5660 5660 5660 5659 5660 5661 5662 5661 5660 5659 5659 5660 5661 5662 5662 5664 5665 5665 5665 5665 5665 5666 5666 5666 5666 5666 5667 5667 5668 5668 5669 5668 5668 5668 5671 5673 5676 5679 5682 5683 5686 5687 5686 5685 5686 5688 5689 5690 5693 5697 5704 5712 5718 5721 5720 5717 5716 5715 5715 5717 5720 5718 5719 5724 5728 5732 5739
5649 5649 5649 5648 5648 5647 5648 5649 5648 5649 5649 5650 5650 5651 5651 5651 5651 5651 5652 5653 5653 5654 5654 5655 5655 5655 5655 5654 5654 5654 5654 5654 5655 5656 5656 5655 5656 5656 5656 5656 5658 5661 5663 5665 5668 5672 5674 5676 5677 5677 5678 5679 5678 5677 5678 5681 5686 5691 5697 5703 5709 5713 5712 5712 5710 5707 5708 5709 5708 5707 5710 5713 5715 5722
5638 5638 5639 5639 5638 5637 5638 5639 5639 5639 5640 5640 5640 5640 5640 5642 5643 5644 5643 5644 5644 5643 5643 5643 5643 5642 5641 5641 5641 5640 5641 5641 5641 5641 5641 5642 5642 5644 5646 5647 5648 5650 5651 5653 5656 5659 5661 5663 5665 5665 5666 5668 5666 5666 5669 5672 5675 5679 5683 5687 5693 5697 5700 5703 5705 5704 5704 5704 5704 5703 5703 5702 5702 5708
5627 5627 5628 5629 5629 5628 5629 5630 5631 5631 5631 5631 5631 5631 5632 5633 5633 5633 5633 5632 5632 5630 5630 5629 5628 5628 5627 5627 5627 5626 5626 5626 5625 5626 5628 5630 5631 5632 5633 5634 5636 5637 5638 5640 5643 5645 5646 5648 5649 5649 5651 5653 5653 5653 5655 5659 5662 5667 5670 5673 5675 5678 5682 5688 5693 5697 5701 5702 5702 5700 5699 5698 5697 5700
5614 5615 5617 5617 5617 5619 5621 5622 5622 5621 5620 5620 5621 5622 5623 5623 5623 5622 5622 5620 5620 5619 5618 5616 5614 5613 5612 5611 5611 5610 5610 5611 5612 5614 5615 5617 5618 5619 5620 5620 5621 5623 5624 5625 5627 5630 5632 5633 5634 5634 5635 5638 5638 5638 5640 5644 5647 5651 5654 5657 5660 5662 5665 5669 5673 5676 5684 5693 5697 5693 5690 5690 5692 5695